Home   Weather   Fayetteville   Past weeks

Flag for USA Past Weather in Fayetteville, North Carolina, USA — Yesterday and Last 2 Weeks

Now
72 °F

Fog.


Feels Like: 68 °F
Forecast: 69 / 82 °F
Wind: 7 mph from East

Location: Fayetteville Regional Airport

Current Time: Sep 25, 2016 at 8:31:02 AM

Latest Report: Sep 25, 2016 at 7:53 AM


Visibility: 1 mi

Pressure: 30.10 "Hg

Humidity: 93%

Dew Point: 70 °F

Location of FayettevilleLocation

Past Weather in Fayetteville — Graph

°F

Fayetteville Temperature Yesterday

Maximum temperature yesterday: 90 °F (at 3:53 PM)
Minimum temperature yesterday: 68 °F (at 4:58 AM)
Average temperature yesterday: 78 °F

High & Low Weather Summary for the Past Weeks

 TemperatureHumidityPressure
High91 °F (Sep 10, 2:53 PM)97% (Sep 14, 3:53 AM)30.20 "Hg (Sep 14, 3:53 AM)
Low65 °F (Sep 14, 3:53 AM)38% (Sep 14, 3:53 PM)29.88 "Hg (Sep 19, 2:53 PM)
Average77 °F79%30.03 "Hg
* Reported Sep 10 6:53 AM — Sep 25 6:53 AM, Fayetteville, Weather by CustomWeather, © 2016

Note: Actual official high and low records may vary slightly from our data, if they occured in-between our weather recording intervals... More about our weather records

Advertising

Fayetteville Weather History for the Previous 24 Hours

Scroll right to see more
 ConditionsComfort  
Time TempWeatherWind HumidityBarometerVisibility
6:53 AM
Sun, Sep 25
71 °FFog.6 mph96%30.08 "Hg2 mi
5:53 AM70 °FFog.5 mph97%30.06 "Hg1 mi
4:53 AM69 °FFog.7 mph93%30.05 "Hg4 mi
3:53 AM69 °FFog.6 mph96%30.04 "Hg4 mi
2:53 AM71 °FClear.No wind87%30.02 "Hg10 mi
1:53 AM71 °FClear.No wind87%30.02 "Hg10 mi
12:53 AM74 °FClear.No wind82%30.01 "Hg10 mi
11:53 PM
Sat, Sep 24
75 °FClear.No wind79%30.02 "Hg10 mi
10:53 PM76 °FClear.3 mph80%30.02 "Hg10 mi
9:53 PM77 °FClear.No wind79%30.02 "Hg10 mi
8:53 PM79 °FClear.No wind74%30.01 "Hg10 mi
7:53 PM81 °FClear.3 mph69%29.99 "Hg10 mi
6:53 PM84 °FSunny.3 mph61%29.99 "Hg10 mi
5:53 PM88 °FSunny.3 mph50%29.99 "Hg10 mi
4:53 PM89 °FSunny.5 mph45%29.98 "Hg10 mi
3:53 PM90 °FSunny.No wind45%29.99 "Hg10 mi
2:53 PM89 °FSunny.3 mph43%30.00 "Hg10 mi
1:53 PM88 °FSunny.3 mph48%30.01 "Hg10 mi
12:53 PM85 °FSunny.5 mph57%30.03 "Hg10 mi
11:53 AM84 °FSunny.5 mph63%30.05 "Hg10 mi
10:53 AM82 °FSunny.6 mph65%30.05 "Hg10 mi
9:53 AM79 °FSunny.No wind72%30.06 "Hg10 mi
8:53 AM75 °FSunny.3 mph85%30.04 "Hg10 mi
Weather by CustomWeather, © 2016

See weather overviewHow to use our weather pages